Location: *
(35.8942°N, 23.3025°E)
Time: 16:46:14
(UTC+00:00)

X-37B - Visible Passes

Search period start: 03 December 2022 00:00
Search period end: 13 December 2022 00:00
Orbit: 277 x 277 km, 45.0° (Epoch: 01 November)

Date Brightness Start Highest point End Pass type
(mag) Time Alt. Az. Time Alt. Az. Time Alt. Az.
05 Dec 2.2 15:58:13 10° S 15:59:43 15° SE 16:00:54 11° ESE visible
06 Dec 1.1 15:58:04 10° SSW 16:00:16 30° SE 16:01:46 16° E visible
07 Dec -0.1 15:58:28 10° SW 16:00:54 72° SSE 16:02:34 18° ENE visible
08 Dec 0.5 15:59:12 10° WSW 16:01:35 50° NNW 16:03:19 16° NE visible
09 Dec 1.5 16:00:10 10° W 16:02:20 27° NNW 16:04:00 14° NNE visible
10 Dec 2.1 16:01:19 10° WNW 16:03:09 18° NNW 16:04:40 12° NNE visible
11 Dec 2.4 16:02:38 10° NW 16:04:00 14° NNW 16:05:18 10° NNE visible
12 Dec 2.6 16:04:02 10° NNW 16:04:53 11° N 16:05:46 10° NNE visible
